Météo par heure à Aljustrel

Ce jour, 31 Octobre, Samedi

Heure Température Précipitation Vent Pression Humidité
00:00 +18°C° 0 mm 1 m/s 753 mmHg 66%
01:00 +18°C° 0 mm 1 m/s 753 mmHg 67%
02:00 +18°C° 0 mm 1 m/s 753 mmHg 68%
03:00 +16°C° 0 mm 1 m/s 753 mmHg 69%
04:00 +16°C° 0 mm 1 m/s 754 mmHg 70%
05:00 +16°C° 0 mm 1 m/s 754 mmHg 71%
06:00 +18°C° 0 mm 1 m/s 754 mmHg 66%
07:00 +19°C° 0 mm 1 m/s 755 mmHg 62%
08:00 +20°C° 0 mm 1 m/s 755 mmHg 58%
09:00 +22°C° 0 mm 1 m/s 755 mmHg 52%
10:00 +24°C° 0 mm 2 m/s 755 mmHg 46%
11:00 +26°C° 0 mm 2 m/s 755 mmHg 40%
12:00 +26°C° 0 mm 2 m/s 755 mmHg 38%
13:00 +27°C° 0 mm 2 m/s 754 mmHg 37%
14:00 +27°C° 0 mm 3 m/s 754 mmHg 36%
15:00 +25°C° 0 mm 3 m/s 754 mmHg 44%
16:00 +24°C° 0 mm 3 m/s 754 mmHg 51%
17:00 +21°C° 0 mm 3 m/s 754 mmHg 59%
18:00 +20°C° 0 mm 3 m/s 754 mmHg 64%
19:00 +19°C° 0 mm 3 m/s 755 mmHg 68%
20:00 +18°C° 0 mm 2 m/s 755 mmHg 73%
21:00 +18°C° 0 mm 2 m/s 755 mmHg 76%
22:00 +17°C° 0 mm 2 m/s 755 mmHg 78%
23:00 +17°C° 0 mm 2 m/s 755 mmHg 81%

Demain, 1 Novembre, Dimanche

Heure Température Précipitation Vent Pression Humidité
00:00 +16°C° 0 mm 1 m/s 754 mmHg 82%
01:00 +16°C° 0 mm 1 m/s 754 mmHg 83%
02:00 +16°C° 0 mm 1 m/s 754 mmHg 84%
03:00 +16°C° 0 mm 1 m/s 754 mmHg 84%
04:00 +15°C° 0 mm 1 m/s 754 mmHg 85%
05:00 +15°C° 0 mm 1 m/s 754 mmHg 85%
06:00 +16°C° 0 mm 1 m/s 754 mmHg 79%
07:00 +19°C° 0 mm 1 m/s 754 mmHg 74%
08:00 +20°C° 0 mm 1 m/s 755 mmHg 69%
09:00 +21°C° 0 mm 1 m/s 755 mmHg 62%
10:00 +23°C° 0 mm 2 m/s 755 mmHg 55%
11:00 +25°C° 0 mm 2 m/s 755 mmHg 48%
12:00 +25°C° 0 mm 2 m/s 754 mmHg 47%
13:00 +26°C° 0 mm 2 m/s 754 mmHg 45%
14:00 +26°C° 0 mm 2 m/s 753 mmHg 43%
15:00 +25°C° 0 mm 2 m/s 753 mmHg 50%
16:00 +23°C° 0 mm 2 m/s 753 mmHg 56%
17:00 +21°C° 0 mm 2 m/s 753 mmHg 62%
18:00 +20°C° 0 mm 2 m/s 753 mmHg 67%
19:00 +19°C° 0 mm 2 m/s 753 mmHg 71%
20:00 +18°C° 0 mm 2 m/s 753 mmHg 76%
21:00 +18°C° 0 mm 2 m/s 753 mmHg 78%
22:00 +18°C° 0 mm 2 m/s 753 mmHg 80%
23:00 +18°C° 0 mm 1 m/s 753 mmHg 82%

Après-demain, 2 Novembre, Lundi

Heure Température Précipitation Vent Pression Humidité
00:00 +18°C° 0 mm 1 m/s 753 mmHg 84%
01:00 +18°C° 0 mm 1 m/s 752 mmHg 85%
02:00 +18°C° 0 mm 1 m/s 752 mmHg 87%
03:00 +18°C° 0 mm 1 m/s 752 mmHg 88%
04:00 +16°C° 0 mm 1 m/s 752 mmHg 89%
05:00 +16°C° 0 mm 1 m/s 752 mmHg 90%
06:00 +18°C° 0 mm 1 m/s 753 mmHg 86%
07:00 +18°C° 0 mm 2 m/s 753 mmHg 81%
08:00 +19°C° 0 mm 2 m/s 753 mmHg 77%
09:00 +20°C° 0 mm 2 m/s 753 mmHg 73%
10:00 +23°C° 0 mm 2 m/s 753 mmHg 68%
11:00 +24°C° 0 mm 3 m/s 753 mmHg 64%
12:00 +24°C° 0 mm 2 m/s 753 mmHg 64%
13:00 +23°C° 0 mm 2 m/s 753 mmHg 64%
14:00 +23°C° 0 mm 2 m/s 753 mmHg 65%
15:00 +23°C° 0 mm 2 m/s 753 mmHg 68%
16:00 +21°C° 0 mm 3 m/s 753 mmHg 71%
17:00 +20°C° 0 mm 3 m/s 753 mmHg 75%
18:00 +20°C° 0 mm 3 m/s 754 mmHg 78%
19:00 +20°C° 0 mm 4 m/s 754 mmHg 82%
20:00 +19°C° 0 mm 4 m/s 754 mmHg 86%
21:00 +18°C° 0 mm 4 m/s 754 mmHg 84%
22:00 +17°C° 0 mm 4 m/s 754 mmHg 82%
23:00 +15°C° 0 mm 5 m/s 754 mmHg 79%

3 Novembre, Mardi

Heure Température Précipitation Vent Pression Humidité
00:00 +15°C° 0 mm 5 m/s 754 mmHg 75%
01:00 +14°C° 0 mm 5 m/s 754 mmHg 71%
02:00 +13°C° 0 mm 4 m/s 754 mmHg 66%
03:00 +13°C° 0 mm 4 m/s 754 mmHg 65%
04:00 +12°C° 0 mm 4 m/s 754 mmHg 64%
05:00 +12°C° 0 mm 4 m/s 754 mmHg 63%
06:00 +12°C° 0 mm 4 m/s 754 mmHg 63%
07:00 +12°C° 0 mm 4 m/s 754 mmHg 63%
08:00 +12°C° 0 mm 4 m/s 754 mmHg 62%
09:00 +15°C° 0 mm 4 m/s 754 mmHg 60%
10:00 +18°C° 0 mm 4 m/s 754 mmHg 57%
11:00 +20°C° 0 mm 4 m/s 754 mmHg 55%
12:00 +21°C° 0 mm 4 m/s 754 mmHg 53%
13:00 +21°C° 0 mm 4 m/s 754 mmHg 51%
14:00 +22°C° 0 mm 4 m/s 753 mmHg 49%
15:00 +21°C° 0 mm 4 m/s 753 mmHg 53%
16:00 +19°C° 0 mm 4 m/s 753 mmHg 57%
17:00 +18°C° 0 mm 3 m/s 753 mmHg 61%
18:00 +17°C° 0 mm 4 m/s 753 mmHg 63%
19:00 +15°C° 0 mm 4 m/s 754 mmHg 64%
20:00 +15°C° 0 mm 4 m/s 754 mmHg 66%
21:00 +14°C° 0 mm 3 m/s 753 mmHg 68%
22:00 +14°C° 0 mm 3 m/s 753 mmHg 69%
23:00 +13°C° 0 mm 3 m/s 753 mmHg 71%

4 Novembre, Mercredi

Heure Température Précipitation Vent Pression Humidité
00:00 +14°C° 0 mm 2 m/s 753 mmHg 73%
01:00 +13°C° 0 mm 2 m/s 752 mmHg 75%
02:00 +13°C° 0 mm 2 m/s 752 mmHg 77%
03:00 +13°C° 0 mm 2 m/s 752 mmHg 80%
04:00 +13°C° 0 mm 2 m/s 752 mmHg 82%
05:00 +13°C° 0 mm 2 m/s 752 mmHg 84%
06:00 +14°C° 0 mm 2 m/s 752 mmHg 79%
07:00 +15°C° 0 mm 2 m/s 752 mmHg 75%
08:00 +16°C° 0 mm 2 m/s 752 mmHg 70%
09:00 +17°C° 0 mm 2 m/s 751 mmHg 65%
10:00 +18°C° 0 mm 3 m/s 751 mmHg 60%
11:00 +20°C° 0 mm 3 m/s 750 mmHg 55%
12:00 +20°C° 0 mm 3 m/s 750 mmHg 53%
13:00 +20°C° 0 mm 4 m/s 749 mmHg 52%
14:00 +20°C° 0 mm 4 m/s 748 mmHg 50%
15:00 +19°C° 0 mm 4 m/s 748 mmHg 52%
16:00 +18°C° 0 mm 4 m/s 747 mmHg 54%
17:00 +15°C° 0 mm 4 m/s 746 mmHg 56%
18:00 +15°C° 0 mm 4 m/s 746 mmHg 54%
19:00 +14°C° 0 mm 5 m/s 746 mmHg 51%
20:00 +13°C° 0 mm 5 m/s 745 mmHg 49%
21:00 +13°C° 0 mm 5 m/s 744 mmHg 50%
22:00 +12°C° 0 mm 5 m/s 744 mmHg 51%
23:00 +10°C° 0 mm 5 m/s 743 mmHg 52%

5 Novembre, Jeudi

Heure Température Précipitation Vent Pression Humidité
00:00 +11°C° 0 mm 4 m/s 742 mmHg 53%
01:00 +10°C° 0 mm 4 m/s 741 mmHg 55%
02:00 +8°C° 0 mm 4 m/s 741 mmHg 57%
03:00 +9°C° 0 mm 3 m/s 740 mmHg 59%
04:00 +9°C° 0 mm 2 m/s 739 mmHg 62%
05:00 +9°C° 0 mm 2 m/s 739 mmHg 65%
06:00 +9°C° 0 mm 2 m/s 739 mmHg 64%
07:00 +10°C° 0 mm 2 m/s 739 mmHg 63%
08:00 +10°C° 0 mm 2 m/s 739 mmHg 63%
09:00 +12°C° 0 mm 3 m/s 739 mmHg 57%
10:00 +13°C° 0 mm 4 m/s 739 mmHg 51%
11:00 +15°C° 0 mm 5 m/s 739 mmHg 46%
12:00 +15°C° 0 mm 5 m/s 739 mmHg 45%
13:00 +15°C° 0 mm 6 m/s 739 mmHg 44%
14:00 +16°C° 0 mm 6 m/s 739 mmHg 43%
15:00 +15°C° 0 mm 5 m/s 740 mmHg 48%
16:00 +14°C° 0 mm 4 m/s 740 mmHg 52%
17:00 +13°C° 0 mm 3 m/s 740 mmHg 57%
18:00 +12°C° 0.2 mm 4 m/s 741 mmHg 63%
19:00 +12°C° 0.2 mm 5 m/s 741 mmHg 69%
20:00 +11°C° 0.2 mm 6 m/s 741 mmHg 75%
21:00 +11°C° 0.2 mm 6 m/s 741 mmHg 77%
22:00 +12°C° 0.2 mm 5 m/s 741 mmHg 78%
23:00 +12°C° 0.2 mm 5 m/s 741 mmHg 79%
Voir plus

Nous avons besoin de votre consentement

Meteoprog et ses fournisseurs de services peuvent stocker et accéder à des données personnelles telles que des cookies, des identifiants d'appareils ou d'autres technologies similaires sur votre appareil et traiter ces données pour personnaliser le contenu et les publicités, ainsi que pour fournir des fonctionnalités de médias sociaux et analyser le trafic.

  • Stocker et/ou accéder à des informations sur votre appareil

    Des cookies, des identifiants d'appareils ou d'autres informations peuvent être stockés ou accessibles sur votre appareil aux fins indiquées ci-dessus.

  • Annonces et contenus personnalisés, mesure des annonces et des contenus, connaissance de l'audience et développement de produits

    Les annonces et le contenu peuvent être personnalisés en fonction d'un profil. D'autres données peuvent être ajoutées pour mieux personnaliser les annonces et le contenu. Les performances des publicités et du contenu peuvent être mesurées. Il est possible d'obtenir des informations sur le public qui a vu les publicités et le contenu. Ces données peuvent être utilisées pour développer ou améliorer l'expérience de l'utilisateur, les systèmes et les logiciels.

En cliquant sur "J'accepte", vous autorisez l'utilisation de cookies, des identifiants d'appareils, des balises web ou d'autres technologies similaires. Vos paramètres peuvent être modifiés dans le navigateur de votre appareil.

Dans certains cas, des intérêts légitimes peuvent être invoqués plutôt qu'un consentement. Vous pouvez en savoir plus à ce sujet dans notre Politique de confidentialité et de cookies.